Home   Weather   Limassol   Past weeks

Flag for Cyprus Past Weather in Limassol, Cyprus — Yesterday and Last 2 Weeks

Now
50 °F

Passing clouds.


Feels Like: 49 °F
Forecast: 52 / 65 °F
Wind: 3 mph from Northwest

Location: Akrotiri

Current Time: Dec 11, 2016 at 8:01:38 am

Latest Report: Dec 11, 2016 at 6:50 am


Visibility: N/A

Pressure: 30.12 "Hg

Humidity: 67%

Dew Point: 39 °F

Location of LimassolLocation

Past Weather in Limassol — Graph

°F

Limassol Temperature Yesterday

Maximum temperature yesterday: 64 °F (at 1:50 pm)
Minimum temperature yesterday: 48 °F (at 1:50 am)
Average temperature yesterday: 56 °F

High & Low Weather Summary for the Past Weeks

 TemperatureHumidityPressure
High70 °F (Nov 26, 12:50 pm)100% (Dec 5, 3:50 pm)30.36 "Hg (Dec 5, 3:50 pm)
Low41 °F (Dec 9, 5:50 am)27% (Nov 26, 12:50 pm)29.59 "Hg (Dec 1, 2:50 pm)
Average59 °F65%30.09 "Hg
* Reported Nov 26 5:50 am — Dec 11 5:50 am, Limassol, Weather by CustomWeather, © 2016

Note: Actual official high and low records may vary slightly from our data, if they occured in-between our weather recording intervals... More about our weather records

Advertising

Limassol Weather History for the Previous 24 Hours

Scroll right to see more
 ConditionsComfort  
Time TempWeatherWind HumidityBarometerVisibility
5:50 am
Sun, Dec 11
50 °FPassing clouds.3 mph71%30.12 "HgN/A
4:50 am52 °FClear.5 mph67%30.12 "Hg10 mi
3:50 am50 °FClear.5 mph71%30.12 "Hg10 mi
2:50 am52 °FClear.3 mph72%30.12 "Hg10 mi
1:50 am54 °FClear.7 mph77%30.12 "Hg10 mi
12:50 am59 °FClear.10 mph72%30.12 "HgN/A
11:50 pm
Sat, Dec 10
57 °FClear.8 mph67%30.12 "Hg10 mi
10:50 pm55 °FClear.9 mph67%30.15 "Hg10 mi
9:50 pm55 °FClear.6 mph67%30.15 "Hg10 mi
8:50 pm59 °FPassing clouds.7 mph63%30.15 "HgN/A
7:50 pm57 °FPassing clouds.8 mph77%30.15 "HgN/A
6:50 pm61 °FPassing clouds.12 mph68%30.12 "HgN/A
5:50 pm61 °FPassing clouds.15 mph63%30.12 "HgN/A
4:51 pm63 °FPassing clouds.14 mph52%30.12 "HgN/A
3:50 pm63 °FPassing clouds.15 mph59%30.12 "HgN/A
2:50 pm63 °FPassing clouds.16 mph56%30.09 "HgN/A
1:50 pm64 °FPassing clouds.16 mph49%30.12 "HgN/A
12:50 pm63 °FPassing clouds.14 mph49%30.12 "HgN/A
11:50 am63 °FPassing clouds.10 mph52%30.15 "HgN/A
10:50 am63 °FScattered clouds.10 mph56%30.18 "HgN/A
9:50 am61 °FPassing clouds.2 mph55%30.18 "HgN/A
8:50 am55 °FPassing clouds.2 mph63%30.18 "HgN/A
Weather by CustomWeather, © 2016

See weather overviewHow to use our weather pages